This is the latest recevied weather packets stored in our database for station/object OH2EGI-2. If no packets are shown the sender has not sent any weather packets the latest 10 day(s).
| Time | Temp. | Humidity | Pressure | Rain* | Wind** | Luminosity | Snow |
|---|---|---|---|---|---|---|---|
| 1777630612 | 24.44° C | 32% | 1011.2 hPa | 0 mm | - | - | - |
| 1777630312 | 23.89° C | 33% | 1011.3 hPa | 0 mm | - | - | - |
| 1777630012 | 23.33° C | 34% | 1011.3 hPa | 0 mm | - | - | - |
| 1777629712 | 22.22° C | 35% | 1011.5 hPa | 0 mm | - | - | - |
| 1777629412 | 22.78° C | 34% | 1011.5 hPa | 0 mm | - | - | - |
| 1777629112 | 22.78° C | 34% | 1011.5 hPa | 0 mm | - | - | - |
| 1777628812 | 23.33° C | 34% | 1011.5 hPa | 0 mm | - | - | - |
| 1777628512 | 22.22° C | 37% | 1011.4 hPa | 0 mm | - | - | - |
| 1777628212 | 21.67° C | 38% | 1011.5 hPa | 0 mm | - | - | - |
| 1777627913 | 21.11° C | 37% | 1011.5 hPa | 0 mm | - | - | - |
| 1777627612 | 21.67° C | 38% | 1011.6 hPa | 0 mm | - | - | - |
| 1777627312 | 21.11° C | 39% | 1011.6 hPa | 0 mm | - | - | - |
| 1777627013 | 21.11° C | 39% | 1011.8 hPa | 0 mm | - | - | - |
| 1777626712 | 21.11° C | 40% | 1011.8 hPa | 0 mm | - | - | - |
| 1777626413 | 20.56° C | 40% | 1011.9 hPa | 0 mm | - | - | - |
| 1777626113 | 20.56° C | 40% | 1011.9 hPa | 0 mm | - | - | - |
| 1777625813 | 20.56° C | 40% | 1011.9 hPa | 0 mm | - | - | - |
| 1777625513 | 21.11° C | 41% | 1012.1 hPa | 0 mm | - | - | - |
| 1777625213 | 21.11° C | 40% | 1012 hPa | 0 mm | - | - | - |
| 1777624913 | 21.11° C | 41% | 1012 hPa | 0 mm | - | - | - |
| 1777624613 | 21.11° C | 41% | 1012 hPa | 0 mm | - | - | - |
| 1777624313 | 20.56° C | 41% | 1012.1 hPa | 0 mm | - | - | - |
| 1777624013 | 20.56° C | 41% | 1012.2 hPa | 0 mm | - | - | - |
| 1777623713 | 20.56° C | 41% | 1012.2 hPa | 0 mm | - | - | - |
| 1777623413 | 20.56° C | 40% | 1012.3 hPa | 0 mm | - | - | - |
* Rain latest hour (hover to see other rain measurements)
** Current wind speed in m/s (hover to see current wind gust speed)